Wind_Speed
6 7 10 11 11 10 8 7 8 8 7 7 6 6 5 5 5 6 7 8 9 9 7 6 6 4 2 6 9 9 12 15 16 16 17 18 16 13 12 13 14 14 12 10 10 10 11 11 12 14 16 18 19 19 18 18 18 17 15 13 11 10 6 7 10 11 12 13 14 14 14 15 15 16 16 17 19 20 22 22 23 22 20 18 16
10 12 13 13 13 10 8 7 7 6 6 6 5 5 4 4 5 5 6 7 7 7 5 4 4 3 4 7 9 10 13 15 14 13 15 16 16 16 15 13 13 11 10 10 11 12 14 15 17 19 20 22 22 21 20 20 20 18 16 14 11 9 5 8 11 13 14 15 15 15 16 16 16 16 17 18 20 22 23 24 24 21 19 16 13
13 14 14 13 11 8 7 7 6 5 5 5 5 4 4 4 4 4 4 4 4 4 4 4 3 3 5 6 7 10 14 13 11 9 10 14 17 18 18 17 14 12 13 14 15 17 18 19 20 21 21 22 22 21 21 20 20 19 16 14 11 8 7 11 13 15 15 16 16 17 17 18 18 17 17 19 21 23 24 25 23 20 17 14 13
14 14 13 11 9 7 7 6 5 5 6 5 4 4 3 3 2 2 1 1 2 3 4 4 3 3 5 6 7 10 12 10 10 10 12 16 16 16 18 19 17 16 18 19 20 21 21 21 21 21 21 21 21 21 21 20 19 18 16 14 13 11 12 13 15 16 17 17 17 18 18 18 18 17 17 19 22 23 25 24 21 18 16 15 16
15 14 12 9 8 7 6 6 5 5 5 5 4 4 4 3 2 1 1 2 3 3 3 4 3 4 6 7 8 10 11 10 12 14 16 19 19 18 18 20 21 22 23 23 23 22 21 21 21 20 20 20 21 21 21 20 19 18 17 16 15 14 15 16 17 18 18 18 18 18 18 18 18 16 17 20 21 24 24 22 18 16 15 16 18
15 14 11 8 8 7 6 6 6 6 6 6 6 5 5 4 3 2 3 4 4 4 3 3 3 5 8 9 10 11 10 12 16 18 20 22 21 19 19 22 25 25 25 25 24 23 22 21 20 20 20 20 21 21 21 21 20 19 18 17 16 17 17 18 18 19 19 19 19 19 19 18 18 17 18 20 22 24 23 19 16 15 16 18 21
14 13 11 8 7 7 6 7 8 7 7 7 7 6 5 5 4 2 4 4 4 4 5 4 5 8 12 15 15 14 14 16 19 22 24 24 22 21 21 23 24 25 26 26 24 22 22 22 21 21 21 22 23 23 23 22 20 20 19 19 19 19 19 19 19 19 19 20 20 20 20 20 18 18 19 20 22 24 21 18 16 16 18 21 24
14 12 10 8 8 8 8 9 10 9 9 8 7 7 6 7 8 6 7 9 7 7 9 9 11 14 17 20 18 17 20 22 22 22 24 26 26 24 25 26 25 25 26 26 25 24 24 25 24 23 23 23 24 23 23 22 22 22 22 22 22 21 21 21 21 21 21 21 22 22 21 20 19 19 20 21 23 23 21 18 16 16 19 23 26
13 12 11 9 9 10 11 11 12 11 10 11 11 11 11 11 13 13 14 14 12 12 15 16 18 20 22 23 22 22 25 27 27 26 26 26 26 26 25 26 26 26 28 28 27 27 27 27 26 25 24 23 24 24 24 25 25 25 25 25 24 23 23 23 23 23 23 24 24 23 23 21 19 19 21 22 24 24 22 19 16 16 19 23 25
13 12 12 11 11 12 13 13 14 14 14 15 16 17 17 17 19 19 19 19 17 18 22 23 22 22 23 26 27 28 28 28 29 28 26 25 26 27 27 27 27 28 30 29 29 30 30 30 29 28 28 27 28 29 29 30 30 30 29 29 28 27 26 25 25 25 26 26 26 26 24 22 21 21 22 24 25 25 23 21 18 17 18 21 24
13 14 14 13 14 15 15 17 19 20 20 20 21 22 24 24 25 25 25 25 23 24 27 27 24 23 24 26 28 27 26 27 27 25 24 26 27 28 27 27 27 27 27 29 32 34 35 36 36 36 36 36 36 36 35 35 35 35 35 34 33 32 30 29 28 28 28 29 29 28 26 25 23 23 24 26 27 27 25 22 20 18 17 19 22
15 16 17 16 17 19 20 22 24 25 26 27 28 28 29 30 30 30 29 27 27 29 30 29 28 27 26 26 27 26 26 27 28 26 25 27 30 31 31 30 30 30 29 31 34 34 35 36 37 38 39 40 40 39 39 38 38 39 38 38 38 37 36 34 32 31 31 31 31 30 30 29 27 26 27 28 29 29 26 24 23 21 20 20 21
18 19 20 21 22 24 25 26 27 30 32 34 35 35 35 35 34 33 30 28 30 31 30 30 30 31 30 28 29 31 32 32 32 32 31 31 32 33 33 32 32 34 32 32 32 33 34 34 34 36 38 38 38 38 38 38 39 39 39 40 40 40 40 39 38 36 34 33 33 33 33 33 32 31 30 30 31 31 29 27 26 25 25 24 22
21 22 24 26 27 28 28 29 30 32 34 35 37 39 39 37 36 35 32 30 30 29 31 31 28 30 33 33 33 36 38 37 36 35 36 37 36 34 33 32 31 32 32 32 33 35 34 33 34 35 34 35 36 36 36 36 36 37 38 38 39 40 40 41 41 40 39 38 37 36 36 36 36 35 34 33 33 33 32 31 29 29 28 27 27
24 27 28 29 30 30 30 31 33 34 36 37 38 39 39 37 37 38 37 36 34 31 33 34 31 31 33 34 36 38 37 36 35 36 38 38 36 34 34 33 32 32 32 34 34 33 33 33 33 31 31 32 34 35 35 35 35 35 35 36 37 38 39 40 41 41 41 41 40 40 40 40 39 39 38 36 36 36 35 34 34 33 32 31 30
27 29 29 31 32 32 33 34 35 36 37 38 38 37 36 36 38 40 40 39 37 36 36 35 35 35 35 34 36 39 39 39 39 38 37 34 30 30 31 31 31 31 32 34 33 32 33 32 32 31 31 32 33 34 35 34 34 34 35 35 36 36 37 37 38 39 40 41 41 42 42 42 42 42 41 41 40 39 38 37 37 37 36 35 34
30 30 30 31 32 33 35 36 37 37 37 37 36 36 35 34 37 40 39 36 35 37 38 38 39 39 37 37 38 41 41 41 40 37 35 32 29 28 30 30 31 31 29 30 32 32 32 33 33 32 31 31 32 33 33 33 33 33 33 34 34 35 36 36 36 36 37 39 40 41 42 42 43 43 43 44 44 43 42 40 40 40 39 39 38
31 32 31 32 34 35 36 37 38 38 37 36 36 38 38 35 35 38 38 37 35 37 41 42 41 42 42 42 42 42 40 38 38 39 38 36 34 33 34 34 35 32 26 24 28 29 30 31 31 30 30 31 32 32 32 32 31 31 31 32 32 33 33 33 34 34 35 37 38 39 41 41 42 43 43 44 45 45 45 44 43 43 42 41 41
30 32 33 34 35 35 37 37 38 38 37 37 38 39 40 38 39 39 38 37 38 39 41 41 42 43 44 43 42 41 41 40 41 42 42 41 40 40 40 41 40 36 30 29 30 28 28 29 29 30 32 32 32 32 31 30 30 30 30 31 30 30 30 30 31 32 33 35 36 37 39 40 41 42 43 43 44 45 45 45 46 46 45 44 43
30 32 33 34 35 35 36 37 38 39 38 39 40 40 39 39 41 42 40 39 41 43 43 42 43 43 42 42 43 43 44 44 44 44 44 43 43 43 42 42 41 39 36 35 34 32 31 31 31 31 33 33 33 32 30 29 30 30 30 30 29 28 28 28 28 29 30 32 34 35 37 38 39 40 41 42 43 44 44 45 45 46 46 46 45
30 31 32 33 33 34 35 36 37 38 38 38 39 40 39 39 40 41 41 41 43 44 44 43 43 42 42 44 44 44 45 44 43 43 42 42 42 42 41 41 40 39 38 37 37 35 34 33 32 33 32 32 31 30 30 29 29 29 29 28 28 27 27 27 27 27 28 29 31 32 34 35 37 38 40 41 42 42 43 44 44 45 46 46 46
30 31 31 31 31 31 32 33 34 35 35 36 37 39 38 38 39 40 41 42 42 43 43 43 43 43 43 43 43 42 42 41 41 41 41 40 41 40 40 40 39 38 38 38 38 37 35 32 31 33 32 30 29 29 29 29 28 28 27 27 26 26 26 26 26 26 27 27 28 29 31 32 34 36 37 39 40 41 41 42 43 44 45 45 45
28 29 30 30 30 30 30 31 32 33 32 33 35 36 36 36 38 39 40 40 40 40 40 41 41 40 40 40 40 40 40 39 39 39 39 39 39 38 38 38 37 37 38 38 37 37 36 33 31 32 32 30 29 29 28 27 27 26 26 26 26 26 26 26 26 26 27 27 28 28 29 30 32 33 35 37 38 39 40 40 41 42 43 44 44
27 28 28 28 28 29 29 29 31 33 33 33 34 34 35 36 37 38 38 38 38 37 37 36 36 36 36 36 37 37 37 37 37 37 37 37 37 36 36 35 35 35 36 36 36 36 35 34 33 32 32 31 30 29 27 26 26 25 25 25 25 26 26 27 27 27 27 28 28 29 29 29 30 31 33 34 35 37 38 39 39 40 41 42 43
26 26 26 26 27 28 29 29 30 31 32 33 33 33 34 35 35 36 36 35 35 34 33 33 33 33 33 33 34 35 34 34 34 34 34 34 34 34 34 34 33 33 33 34 34 34 34 34 33 33 32 32 31 29 26 24 24 24 24 25 25 26 27 27 27 28 28 28 29 29 29 30 30 31 31 32 33 34 36 37 38 38 39 40 41
24 24 24 25 26 27 28 28 29 29 30 31 32 32 33 33 32 32 32 31 31 30 30 29 29 29 29 30 30 31 31 31 31 31 31 31 31 31 31 31 31 31 32 32 32 32 31 30 31 32 32 31 29 28 26 24 23 24 24 25 26 27 27 28 28 28 29 29 30 30 30 30 31 31 31 31 32 33 34 35 36 37 38 39 39
23 24 24 25 25 26 27 27 27 27 28 29 30 31 30 29 29 28 28 27 27 26 26 25 25 26 26 26 27 27 27 28 28 29 28 28 28 28 29 29 30 30 30 30 31 30 29 29 28 28 29 28 28 27 25 23 23 23 24 25 26 27 28 28 29 29 30 30 31 31 31 32 32 32 32 32 32 33 33 33 34 35 36 37 38
23 23 24 24 24 24 24 25 25 26 27 28 28 29 28 26 26 25 24 24 23 22 22 22 22 22 22 23 23 24 24 25 25 26 26 26 26 26 26 27 27 28 28 28 29 29 28 28 28 27 27 26 26 26 23 22 23 23 24 25 26 27 28 28 29 29 30 31 32 32 33 33 33 34 34 34 33 33 34 33 34 34 34 35 36
22 22 22 22 22 22 22 23 23 24 26 26 26 26 25 24 23 22 22 21 19 19 18 18 19 19 19 19 19 20 20 21 22 22 22 23 23 23 24 24 25 26 26 27 27 27 27 28 27 27 26 25 24 24 21 21 22 22 23 23 24 26 27 28 29 29 30 32 32 33 33 34 34 34 34 35 35 35 35 34 33 33 33 33 34
20 20 20 20 20 20 20 20 21 22 23 23 23 23 23 22 21 20 19 18 17 16 16 15 15 15 15 15 15 16 16 17 18 18 19 19 20 21 21 22 23 24 24 24 24 24 25 26 26 25 25 23 22 21 20 19 20 21 22 23 24 25 26 27 28 29 30 31 32 33 33 34 34 34 34 34 35 35 35 35 34 33 33 32 32
17 18 17 18 18 17 18 18 18 18 19 19 20 20 20 20 19 18 17 16 15 14 13 13 12 11 11 11 12 12 13 14 14 15 16 16 17 18 18 19 20 20 21 22 22 22 23 24 24 24 22 20 18 17 17 17 19 21 22 23 24 25 26 26 27 27 28 29 30 31 31 32 33 33 34 34 35 35 34 34 34 34 34 33 32
15 15 14 15 15 14 15 15 15 15 15 16 16 16 17 17 17 16 15 14 13 12 11 10 9 8 8 9 10 10 10 11 11 12 12 13 14 15 15 15 15 16 18 18 19 20 21 21 21 20 19 17 14 13 14 15 17 20 21 22 23 23 23 23 23 24 25 26 27 29 30 30 31 32 33 34 35 35 34 34 34 35 35 35 35
13 12 12 11 11 11 11 12 12 12 12 12 12 13 14 14 14 14 13 12 11 10 9 8 7 7 8 8 8 8 8 8 8 9 9 10 11 11 12 13 12 13 14 15 17 18 18 18 18 17 17 16 13 11 11 13 15 17 19 19 19 19 19 20 20 21 22 24 25 27 29 30 30 31 32 33 34 34 33 33 34 34 34 35 36
12 11 10 9 9 9 9 9 9 9 9 10 10 10 11 11 11 11 11 10 9 8 8 7 7 7 7 7 6 6 6 6 5 6 6 7 8 9 10 10 10 11 12 12 14 15 14 15 16 15 15 15 14 11 8 9 13 15 16 17 17 17 17 17 18 18 19 21 23 25 27 28 29 29 30 31 31 32 31 31 32 33 33 34 35
12 11 10 9 8 8 8 8 7 8 8 8 8 9 9 9 9 8 8 7 7 7 6 6 6 6 5 5 5 4 3 3 2 2 3 4 5 6 7 7 8 9 10 11 11 11 11 11 11 11 11 12 13 10 5 3 8 11 12 14 15 16 16 16 16 17 17 19 20 21 22 24 25 26 26 27 28 28 29 29 30 30 31 33 33
9 10 9 8 7 6 6 6 7 7 7 8 8 8 8 8 7 7 6 6 5 5 5 5 5 5 5 5 4 4 3 2 1 1 2 2 3 4 4 6 6 7 7 8 5 4 4 4 6 7 8 9 10 9 6 2 4 6 8 10 12 13 14 14 15 14 14 15 16 17 19 20 21 21 22 23 24 25 25 26 27 27 28 29 30
6 6 6 6 6 5 4 4 5 5 6 7 8 9 9 9 8 8 7 7 6 6 6 6 5 6 6 5 5 5 5 5 5 4 4 4 4 4 4 5 5 4 4 4 3 5 4 3 5 7 7 7 8 7 7 5 1 2 3 5 8 10 11 12 13 13 12 12 13 14 15 16 17 18 19 20 21 22 23 24 24 25 26 26 27
3 3 2 3 3 2 2 2 2 3 4 5 6 7 7 8 8 9 10 9 8 8 9 8 8 9 9 9 8 8 8 7 7 6 6 5 4 3 4 3 2 1 0 1 3 4 5 4 4 7 7 7 8 6 4 5 4 2 2 0 3 6 8 9 10 10 10 10 10 11 12 14 15 16 17 17 19 20 21 22 23 23 24 25 25
7 5 4 3 3 2 2 2 2 2 2 3 4 4 4 5 7 8 9 9 9 10 10 10 10 11 12 11 11 10 9 8 7 5 3 3 2 2 1 0 1 2 3 4 5 6 7 6 5 6 5 4 5 5 3 3 4 4 4 3 2 3 4 5 7 8 8 8 8 9 10 11 13 14 16 17 17 18 19 20 21 22 23 23 24
9 8 7 6 6 6 6 6 6 6 6 6 6 5 5 6 7 7 7 7 8 9 9 9 10 10 10 10 9 8 7 6 5 3 2 2 2 2 1 1 3 5 5 5 7 7 7 5 4 5 4 3 3 4 5 5 5 5 5 4 4 5 6 6 6 6 7 7 8 8 9 10 11 13 14 16 16 17 18 20 20 21 22 23 24
10 9 8 7 8 9 9 10 10 11 11 10 10 10 10 10 9 9 9 9 8 9 9 9 9 9 9 9 9 8 7 7 6 4 4 5 5 4 5 5 6 7 7 6 5 5 4 4 4 3 3 3 3 5 7 7 7 7 7 9 9 7 8 10 10 10 9 9 10 10 10 11 12 13 14 15 15 16 17 19 20 20 21 23 24
11 10 9 9 10 11 12 13 14 15 15 14 14 15 14 14 14 13 13 13 12 12 12 12 11 11 12 12 12 12 12 11 9 8 9 10 9 9 9 9 9 9 9 7 6 5 4 4 5 5 5 5 4 5 7 8 9 9 8 11 12 9 9 12 14 14 14 13 13 14 14 14 14 15 15 16 16 17 17 18 19 20 21 22 24
12 11 11 12 13 15 15 15 16 18 18 18 18 18 17 17 17 17 17 18 18 17 17 16 15 15 16 16 16 16 16 15 13 12 13 13 13 13 12 13 12 11 10 10 10 9 7 6 6 7 9 10 9 8 8 9 10 11 11 13 14 13 13 15 17 18 18 17 17 17 18 18 18 19 19 19 20 19 19 19 19 20 21 22 23
15 15 16 17 19 20 20 20 21 20 18 19 21 21 21 21 21 21 21 22 21 21 21 20 20 19 19 19 19 19 18 17 16 15 15 16 16 15 15 15 16 15 14 13 12 11 9 8 8 9 12 14 13 12 12 11 12 13 13 15 18 19 18 17 17 19 21 21 21 21 21 22 22 22 23 23 23 23 23 23 23 24 24 25 25
18 18 20 22 24 25 24 24 25 24 21 21 22 23 24 25 25 25 24 24 24 23 24 24 24 24 23 22 22 21 21 20 19 19 18 18 18 17 17 17 17 18 18 17 15 12 11 10 11 13 14 15 15 15 14 14 15 15 15 16 19 21 20 19 19 20 21 22 22 23 23 24 24 24 23 22 22 23 24 25 25 26 26 27 27
23 23 23 24 26 27 27 27 28 26 25 26 26 25 26 27 28 28 28 27 26 26 26 27 27 26 25 25 24 24 23 23 23 22 21 20 21 20 19 18 19 20 21 21 18 15 14 15 16 17 18 19 19 18 17 18 19 18 18 17 18 19 20 21 21 22 23 23 23 24 24 24 23 22 21 21 22 23 24 24 25 25 26 27 28
27 28 27 27 28 30 31 32 32 30 28 29 30 29 29 29 30 30 30 30 30 29 30 30 30 29 28 28 27 26 26 26 26 24 24 23 23 22 21 21 21 22 23 22 20 20 20 21 21 21 21 22 23 23 23 23 23 21 20 19 18 18 19 20 21 22 23 24 24 25 24 23 22 24 25 27 29 30 30 30 30 31 31 32 33
30 32 32 32 32 33 34 35 36 35 32 32 34 33 31 31 31 32 32 33 32 32 33 33 33 32 31 31 31 29 29 30 29 28 28 27 25 25 23 23 23 23 23 22 21 21 22 22 22 23 24 25 25 25 26 26 26 25 23 22 21 21 21 21 21 21 22 23 24 25 25 25 26 29 32 35 36 37 36 35 36 37 37 37 37
35 36 37 37 37 37 37 36 37 37 36 36 38 38 36 34 33 33 34 35 34 34 34 35 35 35 34 34 34 33 32 33 33 32 32 31 29 28 27 25 25 24 23 24 23 22 22 23 24 26 27 28 28 28 27 26 27 27 26 25 25 25 23 23 24 25 26 26 26 27 29 31 32 34 36 39 40 41 40 39 39 39 40 40 40
40 41 41 41 42 42 41 39 39 39 39 40 41 40 40 39 37 37 37 37 37 37 37 37 37 37 36 36 36 36 35 36 37 37 37 35 34 33 31 29 28 27 27 27 28 28 28 28 29 30 29 30 32 31 29 29 30 31 30 30 30 29 27 27 29 30 30 30 30 31 33 36 38 38 39 41 42 43 44 43 42 42 42 42 42
42 44 43 43 45 46 44 42 41 41 42 42 42 41 41 42 42 42 42 41 41 41 40 40 39 39 39 39 39 39 38 38 39 39 39 39 39 38 37 35 34 34 33 34 34 34 36 36 36 35 34 35 35 33 33 33 34 36 36 35 35 36 34 34 35 36 36 36 36 38 39 41 43 43 44 45 44 45 47 47 46 46 45 45 45
Wind_Direction
158 134 118 112 110 112 109 96 86 82 76 71 68 67 71 75 79 84 88 83 68 60 62 53 46 60 25 339 344 347 352 356 358 355 350 344 342 343 340 336 337 341 348 360 12 23 31 35 43 52 59 65 72 76 80 82 84 87 89 94 100 107 96 27 21 29 27 29 30 30 30 27 25 19 13 11 8 5 2 359 355 350 346 344 343
127 116 110 109 108 106 102 93 88 86 81 78 76 75 76 82 91 97 99 93 77 72 71 48 39 46 1 349 348 353 4 8 11 6 359 2 10 15 14 8 5 9 21 34 45 54 59 62 65 66 68 71 74 77 79 81 83 86 87 90 91 88 59 17 25 32 31 32 31 29 27 23 22 18 14 10 7 4 2 0 357 354 355 357 1
118 110 108 106 106 107 102 95 91 87 85 79 74 75 76 82 92 98 106 111 101 86 65 40 34 22 6 2 359 12 20 17 13 10 21 34 34 32 33 33 34 40 51 61 67 72 73 71 69 68 69 71 74 77 78 80 81 82 82 81 77 67 37 24 31 34 34 34 31 28 24 21 19 17 14 10 7 5 3 1 360 2 8 14 19
115 110 108 107 109 109 103 98 93 91 89 77 64 63 61 69 81 86 84 83 86 77 56 50 46 24 16 18 24 36 36 23 21 32 46 55 57 54 51 49 51 60 69 74 78 77 74 71 68 68 69 71 74 76 77 77 76 75 73 68 60 49 37 34 37 36 34 32 28 25 21 19 18 17 14 10 8 7 4 3 6 11 17 25 27
116 110 106 107 110 106 101 96 86 81 75 61 45 46 47 43 37 20 3 356 20 56 67 64 51 30 33 38 43 47 48 49 53 61 62 63 70 70 66 66 66 71 77 79 79 77 74 70 68 68 69 71 73 75 75 74 72 70 65 60 54 48 44 41 39 36 32 28 25 22 19 19 19 18 15 11 10 8 6 9 16 20 24 29 29
115 112 108 108 106 97 90 78 62 59 57 46 34 34 37 41 38 8 351 354 8 42 75 72 51 43 57 69 67 64 73 76 72 77 78 73 76 76 72 73 73 75 77 77 76 75 74 71 68 67 68 68 69 71 72 71 70 67 64 60 56 52 47 43 39 35 30 26 23 21 20 20 20 20 17 14 13 10 11 19 27 32 33 31 31
111 111 108 104 94 80 69 59 52 49 43 36 32 33 36 58 73 27 1 19 28 56 79 88 87 77 76 79 80 80 89 90 79 80 83 81 83 81 72 72 75 76 75 74 72 71 71 70 66 64 64 65 66 66 65 65 64 63 61 59 55 51 46 43 39 35 31 28 25 23 22 22 22 22 19 17 17 15 18 30 36 39 38 34 35
108 106 100 89 77 67 58 54 51 44 37 42 50 56 65 77 88 80 58 57 60 79 94 98 96 92 85 84 88 89 88 88 82 80 86 87 85 80 75 75 77 77 74 70 69 67 68 68 66 64 63 63 63 62 61 60 58 57 55 52 50 48 46 44 42 39 35 32 29 27 26 26 26 26 24 22 22 22 27 36 41 42 38 35 38
106 101 93 81 71 62 54 53 54 53 55 68 74 77 83 83 86 87 80 76 79 90 100 102 97 93 88 86 92 93 89 87 84 84 88 86 79 75 75 76 75 75 73 71 71 71 70 69 69 67 65 64 63 62 59 57 54 52 51 49 48 48 48 48 46 44 40 37 34 32 31 31 32 31 30 29 29 30 34 39 42 43 38 36 38
101 96 90 79 69 64 61 64 69 69 73 80 82 82 84 84 86 90 90 93 99 100 98 99 96 92 88 87 90 90 87 86 86 87 86 81 78 77 76 77 76 74 72 72 75 74 73 72 71 69 67 65 64 63 61 60 57 55 54 52 52 51 52 51 49 47 44 42 39 37 36 36 37 38 36 36 36 36 37 40 43 43 39 34 36
95 89 85 76 71 74 76 79 80 78 78 80 83 83 83 84 86 89 90 92 97 97 93 92 91 90 88 87 87 85 84 85 84 82 82 85 86 83 80 79 77 75 74 76 78 75 73 73 72 70 70 69 68 66 66 65 63 62 60 58 56 55 54 53 51 50 48 46 44 42 41 41 41 42 42 41 41 42 40 42 44 43 41 35 34
87 82 81 81 81 84 84 84 83 82 81 81 82 83 83 83 84 86 87 87 90 91 89 88 88 87 87 88 87 87 89 87 82 80 85 91 89 85 83 80 80 84 84 79 76 72 72 73 73 73 73 73 72 69 68 68 67 66 65 62 61 59 57 56 54 53 51 49 48 46 45 45 45 45 45 45 45 45 44 43 46 45 43 40 35
83 81 85 88 88 86 84 84 85 83 83 82 81 81 82 82 83 84 86 88 90 89 88 89 90 86 85 87 89 89 90 90 87 85 87 89 90 89 87 83 84 85 80 75 74 76 77 76 76 75 74 73 72 71 70 68 67 67 67 65 63 61 59 58 56 55 53 52 51 49 49 48 47 48 47 47 48 48 47 45 47 47 46 44 40
87 89 91 90 88 86 84 85 86 84 83 83 81 81 81 81 83 85 87 90 89 89 89 90 90 89 86 86 89 90 90 91 89 86 86 88 90 90 89 88 84 78 75 77 81 82 79 76 75 74 71 70 71 72 70 69 68 66 66 65 64 63 61 59 57 56 55 53 53 52 51 50 50 50 49 48 49 49 49 48 48 48 47 47 45
94 94 92 90 88 87 87 86 85 83 83 85 84 82 80 81 84 86 87 87 87 90 92 91 92 93 91 89 90 91 91 90 89 90 91 90 88 87 89 88 81 76 78 83 83 79 73 72 72 70 69 71 71 70 70 68 67 66 65 65 64 63 61 60 59 58 57 55 54 53 52 52 52 51 50 49 49 50 50 50 51 51 50 50 48
99 96 92 90 90 89 88 87 86 84 83 85 86 84 81 82 84 86 86 85 84 88 90 91 93 94 93 93 92 90 91 93 95 96 94 89 89 90 90 86 83 81 81 81 78 72 69 70 69 67 68 70 69 69 68 66 64 63 63 63 62 62 60 59 58 58 58 57 56 55 54 53 53 53 52 51 51 50 50 50 52 54 54 53 52
99 98 95 92 91 89 88 87 87 86 85 86 86 87 88 85 83 85 89 88 86 87 89 91 93 94 94 94 95 95 95 96 96 97 95 94 96 93 86 84 87 84 78 76 73 70 70 69 67 66 68 68 66 64 64 62 60 59 58 59 59 59 58 58 57 57 57 57 57 56 55 54 54 53 53 53 53 52 51 51 51 54 55 55 55
98 99 98 94 91 90 89 88 88 87 86 87 87 88 90 89 87 89 91 92 90 92 93 93 93 94 95 97 98 98 97 96 95 94 94 95 94 88 83 83 84 81 76 75 72 69 70 68 65 65 65 65 63 59 59 58 57 56 55 55 55 55 55 55 55 55 55 56 56 55 55 55 55 54 54 54 54 54 53 52 52 53 54 55 56
100 99 97 95 93 91 91 89 89 88 87 88 89 90 91 92 93 94 94 95 97 98 96 95 96 95 95 96 96 94 94 94 94 92 92 91 90 88 86 84 83 82 82 82 80 77 74 70 67 66 63 61 60 57 56 55 53 53 53 52 52 51 52 52 53 53 53 54 55 55 55 55 55 55 55 55 54 54 54 54 54 54 54 54 55
103 100 98 96 95 94 93 92 91 91 91 91 93 95 97 96 96 96 97 99 101 101 99 99 98 96 95 96 95 93 93 93 91 90 90 90 89 88 86 85 84 84 83 81 80 79 77 72 67 65 62 58 55 53 52 51 49 48 48 48 48 49 49 50 51 52 51 52 53 53 54 54 55 55 56 56 55 55 55 55 55 56 55 55 55
104 102 100 99 98 97 97 97 96 95 94 95 97 98 100 101 100 100 101 102 102 101 101 100 99 98 97 96 95 94 92 91 90 89 88 87 86 85 83 83 82 81 80 77 75 75 75 71 64 59 58 55 51 48 47 48 45 44 44 45 45 46 47 48 49 51 51 51 52 52 52 53 54 55 55 56 56 56 56 57 57 58 58 58 57
106 105 104 103 103 102 102 102 102 101 100 100 101 102 102 103 103 103 104 103 102 101 101 100 99 98 97 95 94 93 91 90 89 87 86 84 83 81 80 80 78 77 75 73 71 70 69 67 60 55 54 53 49 46 45 45 44 43 42 43 44 45 46 47 48 49 51 52 52 53 53 53 53 54 55 56 57 58 58 59 59 60 61 61 60
109 108 107 107 108 107 107 107 107 108 107 106 106 105 104 106 106 106 105 104 103 102 100 99 98 96 95 94 93 91 89 88 87 85 84 81 79 78 77 77 75 73 71 70 68 66 64 63 60 55 54 52 49 46 45 43 41 41 42 43 45 46 47 49 49 50 51 52 53 54 55 55 55 55 55 56 57 57 58 60 60 62 63 63 63
114 112 112 112 111 111 111 112 111 110 110 111 111 110 110 111 110 108 107 106 103 101 99 97 96 94 92 92 91 89 87 86 85 83 82 79 77 75 73 73 72 71 70 69 66 63 60 60 59 56 52 50 47 46 45 44 40 40 41 43 46 48 49 50 51 52 52 53 54 55 56 56 57 57 57 57 58 58 59 59 60 61 63 64 65
117 116 116 115 114 115 116 116 114 113 113 114 114 115 115 115 113 112 110 107 105 102 99 97 95 93 92 91 90 89 87 86 85 83 81 78 76 74 72 70 69 68 68 66 65 62 59 57 56 54 51 47 44 43 44 44 42 42 43 45 48 50 51 52 53 53 54 55 55 55 56 56 58 58 58 58 59 60 60 60 60 60 62 63 64
120 119 118 118 118 118 119 118 117 116 116 118 119 120 119 117 116 114 111 109 106 103 100 99 96 94 92 91 90 89 89 88 86 83 80 78 76 73 71 69 66 65 65 64 62 60 58 56 53 50 48 46 43 41 43 46 46 46 47 49 51 52 52 53 54 55 56 57 57 58 58 58 58 59 59 59 59 60 61 61 62 62 62 62 62
122 122 121 121 121 121 122 121 120 119 119 121 123 124 123 121 119 116 114 111 108 105 102 100 98 95 93 92 91 91 90 89 87 84 81 78 76 73 71 69 66 64 62 60 57 56 56 56 54 50 46 44 42 42 45 50 52 53 54 54 54 55 56 56 57 58 59 59 60 60 60 60 60 60 60 60 60 60 60 61 62 63 64 63 63
125 125 124 124 124 125 125 124 123 123 124 125 128 128 127 125 122 120 117 114 111 107 104 101 98 96 94 93 92 91 90 89 86 84 80 78 75 73 71 68 65 62 60 58 56 54 53 53 54 52 48 44 41 43 50 58 60 59 57 58 58 58 59 60 60 61 61 61 61 61 61 60 60 61 61 61 61 61 61 61 62 64 65 65 65
129 128 128 128 128 128 128 128 128 128 128 130 131 132 131 130 128 125 122 118 115 110 105 101 98 95 92 91 90 89 88 87 85 82 80 77 75 73 70 67 64 63 60 57 55 53 50 51 53 52 49 46 40 43 53 62 63 62 61 60 61 62 63 64 64 63 63 63 62 61 60 60 60 60 60 61 61 61 62 62 63 64 65 67 67
132 132 132 131 131 132 132 132 133 133 133 134 135 136 136 135 133 132 129 125 121 115 110 104 99 95 91 89 89 87 85 83 82 80 78 75 73 71 68 65 63 62 60 57 56 53 51 51 51 50 49 48 43 45 55 65 66 66 65 64 65 67 68 68 67 66 65 64 62 61 60 60 59 59 59 59 60 60 61 61 61 62 63 64 66
137 137 136 136 135 136 138 139 139 138 138 139 139 140 140 141 140 139 137 134 130 124 119 113 106 100 96 94 93 89 86 83 79 77 75 72 70 67 65 63 61 60 59 56 54 53 52 51 50 48 48 49 49 50 56 67 72 72 72 72 73 73 73 71 68 67 66 64 63 61 61 61 60 59 59 59 58 58 58 58 58 58 58 58 60
143 143 142 142 141 141 142 143 144 145 145 146 146 146 146 147 147 147 146 144 141 136 130 125 118 110 107 105 102 97 91 87 81 75 70 66 64 63 61 60 56 54 54 52 51 51 52 51 49 47 45 47 56 63 63 70 78 79 77 77 76 75 72 69 66 65 65 64 62 61 60 60 60 59 58 57 57 57 57 56 55 54 55 55 54
140 147 151 151 150 149 148 149 148 150 151 153 153 154 155 156 156 156 156 154 151 148 144 140 132 125 121 117 113 108 99 91 81 71 61 56 54 52 52 52 50 50 51 51 51 50 50 51 49 48 44 42 53 71 76 79 82 81 79 77 76 73 70 67 65 63 62 62 61 60 60 60 59 59 57 56 55 55 55 54 52 50 50 49 47
121 132 144 154 160 161 159 158 159 160 161 163 163 161 162 164 166 166 165 164 162 158 155 149 142 136 131 127 125 118 107 93 76 59 47 41 37 35 37 41 42 42 44 48 51 49 48 49 47 46 44 42 47 53 62 83 87 83 80 75 72 70 67 64 63 62 63 62 60 59 59 60 60 59 58 56 55 54 53 51 49 47 46 44 42
107 111 120 133 149 163 173 176 178 179 179 179 177 174 173 172 173 174 173 173 170 168 167 163 157 152 148 147 145 140 132 112 84 46 24 18 18 20 20 21 25 26 31 41 46 43 42 42 43 48 50 47 50 45 29 84 95 85 79 76 71 69 66 64 63 62 62 61 59 58 59 59 59 58 57 56 54 53 52 50 48 46 44 43 41
105 104 106 112 121 138 159 176 189 197 201 202 199 194 192 191 191 192 191 191 190 192 197 197 195 192 185 185 187 187 190 195 206 263 304 324 337 347 348 352 356 4 23 35 21 354 3 29 40 52 51 41 44 45 20 7 117 98 78 70 67 66 64 62 61 59 58 57 57 58 59 58 58 57 55 53 51 49 48 47 46 43 41 40 39
112 112 110 112 113 116 127 145 165 186 200 209 215 217 216 216 217 217 219 221 222 227 237 237 234 233 229 224 225 229 234 239 242 250 258 268 284 302 312 323 334 357 38 36 316 289 295 342 22 23 17 5 7 25 24 3 351 136 95 64 54 53 52 51 53 54 55 55 56 56 56 54 52 50 48 47 45 44 42 42 41 40 38 36 36
162 154 144 139 137 136 131 131 148 171 181 190 202 214 222 227 229 231 233 233 230 234 242 244 246 250 253 255 254 254 255 253 253 253 256 265 276 287 302 307 292 257 89 306 293 294 304 326 351 351 348 333 319 322 357 1 343 302 251 308 36 34 36 36 38 43 47 47 48 47 43 39 36 34 34 33 33 33 32 31 31 30 29 28 28
204 205 212 216 220 231 237 244 244 234 224 207 196 199 209 222 226 230 233 234 234 237 241 241 241 245 250 254 256 256 256 256 254 249 251 270 277 270 277 239 260 289 301 304 305 304 309 317 314 313 328 336 317 303 301 326 330 306 278 261 283 340 358 9 13 17 22 23 22 21 18 16 15 14 14 13 13 15 16 16 16 16 15 15 15
214 214 219 226 238 246 251 255 257 257 256 252 243 233 231 229 228 231 236 234 233 238 243 240 235 236 238 242 245 248 251 252 246 235 242 263 260 252 279 314 314 316 313 304 305 307 318 329 308 288 306 342 345 330 328 324 310 308 311 312 323 319 304 304 313 323 334 342 345 348 348 350 351 352 353 354 354 356 358 358 359 359 360 360 0
227 229 229 235 244 251 252 253 253 253 250 249 250 248 245 244 243 244 247 244 239 240 243 243 241 242 242 244 245 248 251 252 249 249 256 259 259 262 276 288 294 301 301 298 301 311 335 344 323 297 296 318 318 313 322 324 313 313 318 311 310 310 299 296 291 287 293 303 309 315 320 322 326 328 331 334 335 337 341 342 343 344 345 346 347
245 246 242 240 244 248 252 253 254 254 251 249 250 248 246 248 250 250 250 250 249 249 250 252 254 256 259 261 262 264 268 270 267 264 262 262 264 263 267 273 276 281 287 286 279 281 291 296 294 291 290 295 292 284 291 302 304 305 300 292 294 297 296 297 293 287 286 287 289 295 298 301 305 309 312 315 316 318 321 324 327 329 331 333 335
244 246 244 241 240 241 245 250 252 254 254 254 255 254 252 251 251 251 251 251 252 253 254 256 258 259 262 265 267 270 273 276 277 275 273 272 270 267 265 265 264 264 267 268 266 268 269 267 267 272 277 278 279 282 286 290 294 292 284 283 294 305 301 294 291 289 287 288 288 289 290 293 296 299 301 303 302 303 305 307 310 314 316 319 322
238 240 241 244 247 247 245 244 245 248 251 253 255 257 256 255 253 253 253 254 254 256 257 258 259 260 261 263 266 268 272 275 278 276 275 274 273 270 265 261 257 255 257 260 260 260 260 263 266 270 274 277 280 283 287 291 295 293 283 277 285 296 296 290 287 287 286 287 288 289 290 292 294 296 297 297 297 297 297 298 301 304 306 308 310
243 243 243 246 253 257 257 253 250 250 248 246 249 254 255 255 254 253 253 255 256 257 259 260 261 261 261 263 265 267 270 273 273 272 272 274 275 272 267 264 261 259 258 254 251 251 254 259 265 268 273 278 281 282 285 291 294 295 292 286 285 288 288 286 287 288 286 285 285 286 287 289 290 291 293 295 297 297 297 297 299 300 302 303 304
253 252 250 249 252 258 262 262 260 256 251 247 248 250 252 253 254 254 254 255 257 258 259 261 261 262 262 262 263 263 265 266 266 266 267 267 268 267 266 264 262 260 259 255 253 257 262 264 267 268 270 273 277 279 281 283 284 286 290 291 290 290 289 288 288 288 286 285 285 284 284 284 285 286 289 295 299 302 303 303 303 305 306 307 307
255 256 256 255 255 257 258 261 262 260 256 255 255 253 252 253 253 254 255 255 256 258 259 260 260 261 261 261 260 260 261 261 261 262 262 261 261 263 264 263 261 261 263 262 261 264 268 271 273 274 273 273 273 275 276 277 278 281 285 287 289 291 293 292 290 289 289 288 287 285 284 284 284 286 291 296 300 304 308 308 307 307 308 309 309
253 256 257 257 258 257 256 257 260 259 258 259 260 258 257 256 255 254 255 256 257 258 259 259 259 258 258 259 259 259 260 260 261 261 262 260 260 262 263 263 264 265 268 268 264 262 263 267 270 273 276 278 277 276 277 277 278 280 281 281 282 283 286 288 290 292 292 290 287 285 285 286 287 291 295 298 301 304 306 307 306 306 306 306 307
254 254 253 254 256 257 257 259 261 261 261 260 259 259 259 258 257 256 257 258 259 260 260 260 259 258 257 258 258 258 258 258 258 258 259 259 259 260 260 262 264 266 268 269 267 263 261 260 262 267 274 278 279 279 278 277 275 275 276 276 277 278 278 280 284 287 287 288 289 287 287 288 290 292 295 297 300 302 303 304 304 304 304 305 306
257 256 253 253 255 257 260 262 262 262 262 260 258 257 256 256 256 257 258 259 260 261 261 262 261 260 258 257 257 257 257 257 257 256 257 258 258 259 259 258 260 262 264 266 267 268 267 265 267 269 271 272 274 275 276 277 276 276 276 276 276 276 276 277 281 283 282 283 284 286 288 290 292 293 293 294 296 298 299 300 301 301 302 303 303
256 257 257 255 255 256 257 258 258 258 258 257 257 257 257 257 256 255 256 258 259 260 260 261 262 261 260 259 258 258 257 258 258 257 256 257 257 258 258 257 256 256 257 260 262 264 266 267 269 271 271 271 272 273 275 278 279 278 278 278 278 278 279 280 284 286 284 281 280 283 287 288 289 289 289 290 292 293 293 295 297 298 298 299 300
Height
10945 10944 10944 10945 10945 10946 10945 10944 10943 10941 10941 10940 10938 10937 10936 10935 10935 10934 10933 10933 10933 10932 10932 10932 10932 10932 10932 10931 10931 10930 10930 10928 10927 10925 10924 10923 10921 10920 10918 10917 10916 10915 10914 10913 10912 10911 10910 10909 10908 10908 10907 10907 10907 10907 10907 10907 10907 10907 10908 10909 10910 10910 10911 10911 10909 10908 10907 10905 10904 10902 10901 10899 10897 10896 10894 10891 10889 10887 10885 10883 10881 10879 10877 10876 10874
10945 10945 10946 10946 10948 10948 10947 10945 10944 10943 10942 10941 10939 10938 10937 10936 10935 10935 10934 10934 10933 10933 10933 10933 10933 10933 10932 10932 10931 10930 10929 10927 10926 10926 10925 10923 10921 10920 10918 10918 10917 10916 10915 10914 10913 10912 10911 10911 10910 10910 10910 10910 10910 10910 10909 10909 10910 10910 10911 10912 10913 10913 10913 10912 10911 10909 10908 10906 10905 10903 10902 10900 10898 10896 10894 10892 10890 10888 10885 10883 10881 10879 10877 10875 10874
10946 10947 10947 10948 10950 10950 10948 10946 10945 10944 10943 10942 10940 10939 10938 10937 10936 10936 10935 10935 10934 10934 10933 10933 10933 10933 10933 10932 10931 10930 10928 10927 10927 10927 10925 10923 10921 10921 10920 10919 10919 10918 10917 10916 10915 10914 10914 10913 10913 10912 10912 10913 10913 10913 10913 10913 10913 10913 10914 10915 10915 10915 10915 10913 10912 10910 10909 10908 10906 10904 10902 10900 10898 10896 10894 10892 10890 10888 10885 10883 10880 10878 10876 10875 10874
10948 10948 10949 10950 10951 10951 10949 10947 10946 10945 10944 10942 10941 10940 10939 10938 10937 10937 10936 10936 10935 10934 10934 10933 10933 10933 10933 10932 10931 10930 10929 10928 10927 10927 10926 10924 10923 10922 10921 10921 10921 10920 10919 10918 10918 10917 10917 10916 10916 10916 10916 10916 10916 10916 10916 10916 10916 10916 10916 10916 10916 10916 10915 10914 10913 10912 10910 10909 10907 10905 10903 10901 10899 10897 10895 10893 10891 10888 10886 10883 10880 10878 10876 10875 10874
10949 10950 10951 10951 10951 10951 10949 10948 10947 10946 10944 10943 10942 10941 10940 10939 10938 10938 10937 10937 10936 10935 10934 10934 10933 10933 10933 10932 10931 10931 10930 10930 10929 10928 10927 10926 10925 10924 10923 10923 10923 10923 10922 10921 10921 10920 10920 10920 10920 10920 10919 10920 10920 10920 10920 10919 10919 10919 10918 10918 10918 10917 10916 10915 10914 10913 10911 10910 10908 10906 10904 10902 10900 10898 10896 10894 10892 10889 10886 10883 10881 10879 10877 10876 10875
10950 10951 10952 10953 10952 10951 10950 10948 10947 10946 10945 10944 10943 10942 10941 10941 10940 10939 10939 10937 10936 10936 10935 10935 10934 10934 10933 10933 10932 10932 10932 10932 10931 10930 10929 10928 10928 10927 10926 10926 10926 10927 10926 10925 10925 10924 10923 10923 10924 10924 10923 10923 10923 10923 10923 10923 10922 10922 10921 10921 10920 10919 10918 10917 10915 10914 10913 10911 10910 10908 10906 10904 10901 10899 10897 10895 10892 10890 10887 10884 10882 10880 10879 10877 10876
10952 10953 10954 10954 10953 10951 10950 10949 10948 10947 10946 10945 10944 10943 10942 10942 10941 10941 10940 10938 10937 10936 10936 10936 10936 10935 10934 10933 10933 10933 10933 10934 10934 10932 10931 10931 10932 10931 10930 10930 10930 10931 10930 10930 10929 10929 10927 10926 10927 10928 10927 10927 10926 10926 10926 10926 10925 10925 10924 10923 10922 10921 10920 10919 10918 10916 10915 10913 10911 10909 10907 10905 10903 10900 10898 10895 10893 10890 10887 10885 10883 10881 10880 10878 10876
10954 10954 10954 10954 10953 10952 10951 10950 10949 10948 10947 10945 10944 10943 10942 10942 10942 10941 10940 10939 10938 10937 10937 10937 10937 10936 10936 10935 10936 10936 10936 10936 10936 10935 10935 10935 10935 10934 10934 10934 10935 10935 10934 10934 10934 10934 10932 10930 10930 10931 10931 10931 10930 10929 10929 10928 10928 10927 10926 10925 10924 10923 10922 10921 10920 10919 10917 10914 10912 10910 10908 10906 10904 10901 10899 10896 10894 10891 10888 10886 10884 10882 10881 10879 10877
10956 10956 10956 10955 10955 10953 10952 10951 10950 10949 10948 10946 10945 10943 10942 10942 10941 10940 10940 10940 10941 10940 10938 10938 10938 10938 10938 10938 10938 10939 10938 10938 10938 10938 10939 10939 10938 10938 10937 10938 10939 10939 10938 10939 10939 10939 10937 10935 10934 10935 10935 10934 10933 10932 10932 10931 10931 10930 10929 10928 10927 10926 10925 10924 10922 10920 10918 10916 10914 10912 10909 10907 10905 10903 10901 10898 10895 10892 10890 10887 10886 10884 10882 10880 10878
10958 10957 10957 10957 10956 10955 10954 10953 10952 10950 10949 10947 10946 10944 10943 10942 10942 10941 10940 10942 10943 10942 10940 10940 10940 10941 10941 10940 10940 10940 10940 10941 10941 10942 10943 10943 10943 10942 10942 10944 10944 10943 10943 10943 10943 10942 10941 10939 10939 10938 10939 10938 10936 10935 10935 10934 10933 10933 10932 10931 10930 10929 10928 10926 10924 10922 10920 10918 10916 10914 10911 10909 10907 10905 10903 10900 10897 10894 10891 10889 10887 10885 10883 10881 10879
10959 10959 10959 10959 10958 10957 10956 10955 10953 10952 10950 10948 10947 10945 10944 10944 10943 10943 10943 10944 10945 10944 10943 10943 10943 10944 10944 10944 10943 10943 10943 10944 10944 10945 10946 10947 10947 10947 10948 10948 10947 10946 10948 10948 10946 10945 10944 10944 10945 10944 10944 10943 10941 10940 10939 10938 10937 10936 10935 10935 10934 10932 10931 10929 10927 10925 10923 10921 10919 10916 10914 10912 10910 10908 10905 10902 10899 10896 10893 10891 10889 10887 10885 10883 10880
10961 10961 10961 10961 10960 10959 10958 10956 10955 10954 10952 10950 10948 10947 10946 10946 10945 10945 10946 10948 10947 10946 10946 10946 10947 10947 10948 10948 10947 10947 10947 10948 10948 10948 10950 10951 10952 10952 10952 10952 10951 10951 10953 10953 10952 10950 10949 10950 10951 10950 10949 10947 10945 10945 10945 10943 10942 10940 10939 10938 10937 10936 10934 10932 10930 10928 10926 10924 10922 10920 10918 10915 10913 10911 10908 10905 10902 10898 10896 10894 10891 10889 10886 10884 10881
10963 10963 10963 10963 10962 10961 10960 10959 10957 10956 10954 10952 10950 10950 10949 10948 10948 10948 10950 10951 10950 10949 10949 10950 10950 10951 10951 10952 10952 10951 10951 10951 10951 10952 10954 10955 10956 10957 10956 10955 10955 10956 10957 10958 10957 10956 10956 10956 10956 10954 10953 10952 10951 10950 10950 10949 10948 10946 10944 10943 10942 10940 10939 10937 10935 10932 10930 10928 10926 10923 10921 10919 10916 10914 10911 10908 10905 10901 10899 10897 10894 10890 10888 10885 10883
10965 10966 10965 10965 10964 10963 10962 10961 10960 10958 10956 10954 10954 10954 10953 10953 10953 10953 10953 10953 10953 10952 10952 10952 10954 10955 10955 10955 10955 10955 10955 10954 10956 10957 10958 10959 10960 10961 10960 10958 10959 10961 10962 10963 10963 10963 10962 10961 10959 10958 10958 10958 10956 10955 10954 10954 10953 10952 10949 10947 10947 10945 10943 10941 10939 10937 10934 10932 10930 10927 10925 10922 10920 10917 10914 10911 10908 10905 10902 10900 10896 10893 10890 10887 10884
10968 10968 10968 10967 10966 10966 10965 10964 10962 10961 10959 10958 10958 10958 10958 10958 10958 10957 10957 10957 10957 10957 10956 10956 10959 10960 10959 10958 10959 10959 10958 10958 10959 10962 10963 10964 10965 10965 10965 10964 10963 10967 10969 10969 10969 10968 10966 10965 10964 10963 10964 10963 10962 10961 10959 10958 10958 10957 10954 10952 10951 10949 10947 10945 10943 10941 10939 10936 10934 10931 10929 10926 10923 10921 10918 10915 10911 10908 10906 10903 10900 10896 10893 10890 10887
10970 10970 10971 10970 10969 10968 10967 10966 10965 10964 10963 10962 10962 10963 10963 10963 10963 10961 10961 10961 10963 10963 10961 10962 10963 10963 10962 10963 10964 10963 10962 10962 10963 10965 10966 10968 10971 10971 10971 10969 10968 10972 10975 10974 10973 10972 10971 10970 10969 10969 10969 10968 10967 10965 10964 10963 10962 10961 10959 10957 10955 10953 10951 10950 10948 10946 10943 10941 10938 10935 10933 10930 10927 10924 10921 10919 10915 10912 10910 10907 10904 10899 10896 10893 10890
10972 10973 10973 10973 10972 10971 10970 10969 10969 10968 10968 10967 10967 10968 10968 10969 10968 10966 10966 10966 10968 10969 10967 10968 10968 10968 10967 10967 10968 10968 10967 10968 10969 10970 10969 10971 10975 10976 10975 10974 10972 10975 10978 10979 10977 10976 10975 10975 10975 10975 10975 10973 10971 10970 10968 10967 10966 10965 10963 10961 10959 10957 10955 10954 10952 10950 10948 10945 10942 10939 10937 10934 10932 10929 10926 10923 10919 10916 10914 10911 10908 10903 10900 10897 10894
10975 10976 10976 10976 10975 10974 10974 10973 10973 10972 10972 10972 10972 10973 10973 10974 10973 10972 10971 10971 10972 10974 10972 10973 10975 10974 10973 10973 10973 10973 10973 10974 10976 10976 10975 10976 10978 10979 10979 10979 10976 10976 10981 10984 10980 10978 10978 10979 10981 10982 10980 10977 10975 10974 10973 10971 10970 10969 10967 10964 10962 10960 10959 10958 10956 10954 10951 10949 10946 10944 10941 10938 10936 10933 10930 10927 10924 10921 10918 10915 10912 10908 10905 10902 10898
10979 10979 10979 10978 10978 10978 10978 10978 10977 10977 10977 10976 10977 10978 10979 10980 10978 10976 10976 10976 10977 10978 10977 10979 10981 10980 10979 10979 10979 10979 10979 10980 10981 10981 10981 10981 10981 10983 10982 10982 10981 10980 10985 10988 10983 10982 10984 10985 10986 10985 10983 10981 10980 10979 10977 10976 10974 10972 10970 10967 10966 10964 10963 10961 10959 10957 10955 10952 10950 10948 10945 10943 10940 10938 10935 10932 10928 10926 10923 10920 10917 10913 10909 10907 10903
10982 10982 10982 10982 10982 10982 10982 10982 10982 10981 10982 10982 10982 10982 10984 10984 10983 10981 10981 10982 10982 10982 10982 10984 10985 10985 10986 10985 10984 10984 10984 10985 10985 10985 10986 10986 10986 10986 10985 10985 10985 10986 10989 10990 10988 10987 10988 10988 10988 10987 10986 10984 10983 10982 10982 10980 10978 10975 10973 10971 10970 10968 10966 10964 10962 10960 10958 10956 10954 10951 10949 10947 10945 10942 10940 10936 10933 10931 10928 10925 10922 10918 10914 10912 10909
10985 10985 10985 10985 10986 10987 10987 10987 10987 10986 10986 10987 10987 10987 10988 10988 10988 10987 10987 10987 10988 10987 10987 10988 10989 10990 10991 10990 10989 10989 10989 10989 10990 10990 10991 10991 10991 10990 10989 10988 10989 10990 10991 10992 10991 10991 10990 10990 10990 10989 10988 10988 10988 10987 10985 10983 10981 10979 10976 10975 10973 10971 10969 10967 10965 10963 10961 10959 10957 10955 10953 10951 10949 10947 10944 10941 10938 10936 10933 10930 10927 10923 10920 10918 10915
10988 10989 10989 10989 10989 10990 10991 10991 10991 10991 10991 10991 10991 10991 10991 10992 10992 10992 10992 10992 10992 10992 10992 10993 10993 10994 10994 10994 10994 10994 10994 10994 10994 10995 10996 10996 10995 10994 10993 10993 10993 10994 10994 10993 10994 10993 10992 10991 10991 10991 10991 10992 10992 10991 10988 10986 10984 10982 10980 10978 10976 10974 10972 10970 10968 10966 10964 10962 10960 10958 10956 10955 10953 10951 10948 10946 10943 10941 10938 10935 10932 10929 10925 10923 10921
10992 10992 10992 10993 10993 10994 10995 10995 10995 10995 10995 10995 10995 10994 10994 10997 10997 10997 10997 10997 10997 10997 10997 10998 10998 10998 10998 10998 10998 10998 10998 10999 10999 10999 10999 10999 10999 10998 10998 10997 10997 10997 10997 10996 10996 10996 10995 10994 10993 10993 10993 10994 10994 10992 10991 10989 10987 10985 10983 10981 10979 10977 10975 10973 10971 10969 10967 10965 10963 10961 10960 10958 10956 10954 10952 10950 10948 10946 10943 10940 10937 10934 10931 10929 10926
10995 10996 10996 10996 10997 10997 10998 10999 10999 10998 10998 10998 10998 10998 10998 11000 11001 11001 11001 11001 11001 11001 11001 11002 11002 11002 11002 11002 11002 11002 11002 11004 11003 11003 11003 11002 11002 11002 11002 11001 11001 11001 11000 10999 10998 10998 10998 10997 10996 10997 10996 10996 10995 10994 10993 10991 10989 10987 10985 10984 10982 10980 10978 10976 10974 10972 10970 10968 10966 10964 10963 10961 10959 10957 10955 10954 10952 10950 10948 10945 10943 10940 10937 10934 10932
10998 10999 10999 11000 11000 11000 11001 11001 11002 11002 11002 11002 11002 11002 11003 11003 11004 11004 11004 11004 11004 11004 11005 11005 11005 11005 11005 11005 11005 11005 11006 11007 11007 11007 11006 11006 11006 11005 11005 11004 11004 11004 11003 11002 11001 11000 11001 11000 11000 10999 10998 10998 10997 10996 10995 10993 10991 10990 10988 10987 10985 10983 10982 10980 10978 10976 10974 10972 10970 10968 10966 10965 10963 10961 10959 10957 10956 10954 10952 10950 10947 10945 10942 10940 10937
11001 11001 11002 11003 11003 11003 11004 11004 11005 11005 11005 11005 11006 11006 11006 11007 11007 11007 11007 11007 11007 11008 11008 11008 11008 11008 11009 11009 11008 11008 11009 11010 11010 11009 11009 11009 11009 11008 11007 11007 11007 11007 11006 11005 11004 11003 11003 11003 11003 11002 11000 11000 10999 10998 10997 10995 10994 10992 10991 10990 10988 10987 10985 10983 10981 10979 10977 10975 10974 10972 10970 10968 10966 10964 10962 10961 10959 10958 10956 10954 10952 10949 10947 10945 10943
11003 11004 11005 11005 11006 11006 11007 11007 11007 11008 11008 11009 11009 11009 11010 11010 11010 11010 11010 11010 11010 11011 11011 11011 11011 11011 11011 11011 11011 11011 11012 11012 11012 11012 11012 11011 11011 11011 11010 11010 11010 11009 11008 11007 11006 11005 11005 11005 11005 11004 11003 11003 11002 11000 10998 10997 10996 10995 10994 10993 10991 10990 10988 10986 10985 10983 10981 10979 10977 10976 10974 10972 10970 10968 10966 10965 10963 10961 10959 10957 10956 10954 10952 10949 10948
11005 11006 11007 11008 11008 11009 11009 11010 11010 11011 11011 11012 11012 11012 11013 11013 11013 11013 11013 11013 11013 11014 11014 11014 11014 11014 11014 11014 11014 11014 11014 11014 11014 11014 11014 11014 11014 11013 11013 11012 11012 11011 11010 11009 11008 11008 11007 11007 11006 11006 11005 11005 11003 11002 11000 10999 10998 10997 10996 10995 10994 10993 10991 10990 10988 10986 10985 10983 10981 10980 10978 10976 10974 10972 10971 10969 10967 10965 10963 10961 10960 10958 10956 10954 10952
11007 11008 11009 11010 11011 11011 11012 11013 11013 11014 11014 11014 11015 11015 11015 11015 11016 11016 11016 11016 11016 11016 11016 11016 11016 11016 11016 11016 11017 11017 11017 11017 11017 11017 11017 11016 11016 11016 11015 11015 11014 11013 11012 11011 11011 11010 11009 11008 11008 11007 11007 11007 11005 11003 11002 11001 11000 10999 10998 10997 10997 10996 10994 10993 10992 10990 10988 10987 10985 10984 10982 10980 10978 10977 10975 10974 10972 10970 10968 10965 10964 10962 10960 10958 10956
11010 11010 11011 11012 11013 11013 11014 11015 11016 11016 11017 11017 11017 11017 11018 11018 11018 11018 11018 11018 11018 11018 11019 11019 11019 11019 11019 11019 11019 11019 11019 11019 11019 11019 11019 11018 11018 11017 11017 11016 11016 11015 11014 11014 11013 11012 11011 11010 11009 11009 11008 11008 11007 11006 11004 11003 11002 11001 11000 11000 10999 10998 10997 10996 10995 10993 10992 10991 10989 10988 10986 10984 10982 10981 10979 10978 10976 10974 10972 10970 10968 10966 10964 10962 10961
11012 11013 11013 11014 11015 11015 11016 11017 11018 11018 11019 11019 11019 11020 11020 11020 11020 11020 11020 11020 11020 11020 11020 11020 11020 11021 11021 11021 11021 11021 11021 11020 11020 11020 11020 11020 11019 11019 11018 11017 11017 11016 11016 11015 11015 11014 11012 11011 11010 11010 11009 11009 11009 11008 11006 11005 11004 11002 11002 11001 11001 11000 10999 10999 10998 10996 10995 10994 10993 10991 10990 10988 10986 10985 10983 10982 10980 10979 10977 10975 10973 10971 10969 10968 10966
11013 11014 11015 11016 11016 11017 11018 11018 11019 11020 11020 11021 11021 11021 11022 11022 11022 11022 11022 11022 11022 11022 11022 11022 11022 11022 11022 11022 11022 11022 11022 11022 11022 11022 11021 11021 11021 11020 11019 11018 11018 11017 11016 11016 11016 11014 11013 11012 11012 11011 11011 11010 11010 11009 11007 11006 11005 11004 11004 11003 11003 11002 11001 11001 11000 10999 10998 10997 10996 10995 10993 10992 10990 10989 10987 10986 10984 10983 10981 10979 10978 10976 10974 10973 10971
11014 11015 11016 11017 11018 11018 11019 11020 11020 11021 11021 11022 11022 11023 11023 11023 11023 11023 11023 11023 11023 11023 11023 11023 11023 11023 11023 11023 11023 11023 11023 11023 11023 11023 11022 11022 11022 11021 11020 11019 11019 11018 11017 11017 11016 11015 11014 11013 11012 11012 11012 11011 11010 11010 11009 11009 11007 11006 11005 11005 11004 11003 11003 11002 11002 11001 11001 11000 10999 10998 10997 10995 10994 10992 10991 10990 10988 10987 10985 10984 10982 10981 10979 10977 10976
11015 11016 11017 11018 11018 11019 11020 11021 11021 11022 11022 11023 11023 11023 11024 11024 11024 11024 11024 11024 11024 11024 11024 11024 11024 11024 11024 11024 11024 11024 11024 11024 11024 11023 11023 11023 11023 11022 11021 11020 11020 11019 11018 11016 11016 11015 11013 11013 11013 11013 11013 11012 11011 11011 11012 11010 11009 11007 11006 11006 11005 11004 11004 11003 11003 11002 11002 11001 11001 11000 10999 10998 10997 10995 10994 10993 10992 10991 10989 10988 10986 10985 10983 10982 10980
11016 11017 11017 11018 11019 11020 11020 11021 11022 11022 11023 11023 11024 11024 11024 11025 11025 11025 11025 11025 11025 11025 11025 11025 11025 11024 11024 11024 11024 11024 11024 11024 11024 11024 11024 11024 11023 11023 11022 11021 11020 11020 11018 11017 11016 11015 11013 11012 11011 11012 11012 11012 11011 11012 11013 11011 11009 11008 11007 11006 11005 11005 11004 11004 11004 11003 11003 11003 11002 11002 11001 11000 10999 10998 10997 10996 10995 10994 10993 10991 10990 10988 10987 10985 10984
11017 11017 11018 11019 11019 11020 11020 11021 11022 11022 11023 11024 11024 11025 11025 11025 11025 11025 11026 11026 11026 11026 11026 11026 11025 11025 11025 11024 11024 11024 11024 11023 11023 11023 11023 11023 11023 11023 11022 11021 11020 11019 11019 11017 11014 11013 11012 11011 11010 11011 11012 11012 11011 11012 11012 11010 11010 11009 11008 11007 11006 11005 11004 11004 11004 11004 11004 11004 11004 11003 11002 11001 11001 11000 10999 10998 10997 10996 10995 10994 10992 10991 10990 10988 10987
11018 11018 11019 11019 11020 11020 11020 11021 11021 11022 11023 11023 11024 11024 11024 11025 11025 11025 11026 11026 11026 11026 11026 11026 11026 11026 11025 11024 11024 11024 11024 11023 11023 11023 11023 11023 11022 11022 11022 11021 11020 11019 11018 11016 11013 11011 11011 11012 11012 11012 11013 11013 11013 11012 11011 11010 11009 11009 11009 11007 11006 11005 11004 11004 11004 11005 11005 11005 11005 11004 11003 11003 11002 11001 11001 11000 10999 10998 10997 10996 10995 10994 10992 10991 10990
11018 11018 11019 11019 11020 11020 11020 11021 11021 11022 11022 11022 11023 11023 11024 11024 11025 11025 11026 11025 11024 11024 11025 11025 11026 11026 11024 11024 11024 11024 11023 11023 11023 11022 11022 11022 11022 11021 11021 11020 11019 11018 11017 11015 11013 11012 11012 11013 11013 11013 11013 11013 11012 11012 11012 11010 11009 11009 11008 11007 11006 11005 11004 11004 11004 11004 11004 11005 11005 11005 11004 11004 11003 11003 11002 11001 11000 10999 10998 10998 10996 10995 10994 10993 10992
11017 11018 11018 11019 11020 11020 11020 11020 11021 11021 11022 11022 11022 11022 11023 11023 11024 11024 11025 11024 11023 11023 11023 11024 11024 11023 11022 11022 11022 11023 11023 11023 11022 11022 11022 11022 11021 11021 11020 11019 11018 11018 11017 11016 11015 11013 11013 11012 11012 11012 11012 11011 11011 11011 11011 11010 11009 11009 11008 11007 11005 11004 11004 11004 11004 11004 11004 11004 11004 11004 11004 11004 11003 11003 11002 11002 11001 11000 10999 10998 10998 10997 10996 10994 10993
11015 11017 11018 11018 11019 11019 11020 11020 11020 11020 11021 11021 11021 11021 11021 11021 11022 11023 11023 11023 11023 11022 11022 11023 11023 11023 11022 11022 11022 11022 11023 11023 11022 11022 11022 11021 11021 11021 11020 11019 11019 11018 11017 11016 11015 11014 11012 11012 11012 11012 11011 11011 11011 11011 11010 11010 11009 11009 11007 11006 11003 11002 11002 11002 11003 11003 11003 11004 11004 11004 11004 11003 11003 11003 11002 11002 11001 11000 10999 10999 10998 10997 10996 10995 10994
11015 11016 11017 11018 11018 11018 11018 11018 11018 11019 11019 11020 11020 11020 11020 11020 11021 11021 11022 11022 11022 11022 11022 11022 11023 11023 11022 11022 11022 11022 11022 11023 11023 11023 11022 11021 11021 11020 11020 11019 11018 11017 11016 11015 11014 11013 11012 11012 11012 11012 11012 11011 11010 11010 11010 11009 11008 11008 11007 11005 11002 11000 11000 11000 11002 11002 11003 11003 11003 11003 11003 11003 11002 11002 11001 11001 11000 10999 10999 10998 10997 10997 10996 10995 10994
11016 11016 11017 11017 11017 11017 11017 11017 11017 11017 11017 11018 11018 11018 11018 11019 11020 11020 11020 11021 11021 11021 11021 11022 11022 11022 11021 11021 11021 11021 11021 11022 11022 11022 11022 11021 11020 11020 11019 11019 11018 11017 11015 11014 11013 11013 11012 11012 11012 11012 11011 11010 11009 11008 11008 11008 11007 11007 11005 11004 11002 11000 10998 10999 11000 11002 11002 11002 11002 11002 11002 11002 11001 11001 11000 10999 10999 10998 10997 10997 10996 10995 10994 10994 10993
11015 11016 11016 11016 11016 11015 11015 11015 11015 11015 11015 11016 11016 11016 11017 11018 11018 11018 11019 11019 11019 11019 11019 11020 11020 11020 11020 11019 11020 11020 11020 11020 11021 11021 11020 11020 11019 11019 11018 11017 11017 11015 11014 11013 11012 11011 11011 11011 11011 11010 11009 11009 11008 11007 11006 11006 11005 11005 11004 11003 11001 11000 10999 10999 11000 11001 11001 11001 11001 11001 11000 11000 11000 10999 10999 10998 10997 10997 10996 10995 10994 10994 10993 10992 10991
11013 11013 11014 11014 11013 11013 11013 11012 11012 11012 11013 11013 11013 11014 11015 11016 11016 11017 11016 11016 11017 11017 11017 11018 11017 11017 11017 11017 11018 11019 11019 11019 11019 11019 11018 11018 11017 11017 11016 11016 11015 11014 11013 11011 11010 11010 11010 11010 11010 11009 11007 11007 11007 11006 11005 11004 11003 11003 11002 11001 11001 11000 10999 10999 10998 10999 11000 11000 10999 10999 10998 10998 10997 10997 10997 10996 10996 10995 10994 10994 10993 10992 10992 10991 10990
11011 11011 11011 11011 11010 11010 11010 11009 11008 11010 11011 11010 11010 11011 11012 11013 11013 11014 11014 11014 11014 11014 11015 11015 11015 11015 11015 11015 11016 11017 11017 11016 11015 11015 11014 11014 11014 11014 11014 11014 11013 11013 11011 11010 11009 11009 11009 11009 11009 11008 11006 11005 11004 11004 11003 11003 11002 11001 11000 11000 11000 10999 10999 10998 10998 10998 10998 10997 10997 10997 10996 10996 10995 10994 10994 10993 10993 10993 10992 10992 10991 10991 10990 10989 10988
11009 11009 11009 11009 11008 11007 11007 11006 11006 11008 11008 11008 11008 11008 11009 11009 11010 11010 11011 11011 11012 11012 11011 11011 11011 11012 11013 11013 11013 11014 11014 11013 11011 11011 11011 11011 11010 11011 11011 11011 11011 11011 11010 11008 11008 11007 11007 11008 11008 11007 11006 11004 11003 11002 11002 11001 11000 10999 10999 10998 10998 10998 10997 10997 10996 10996 10995 10994 10994 10993 10993 10993 10993 10992 10991 10991 10991 10990 10990 10990 10989 10988 10988 10987 10986
11005 11006 11006 11005 11005 11004 11003 11002 11002 11004 11006 11006 11006 11005 11005 11005 11006 11007 11007 11008 11008 11008 11008 11007 11008 11008 11009 11010 11010 11011 11011 11009 11008 11008 11008 11008 11008 11008 11008 11007 11007 11007 11007 11006 11005 11004 11004 11005 11005 11005 11004 11003 11001 11000 10999 10998 10997 10997 10996 10995 10995 10995 10994 10994 10994 10993 10992 10991 10990 10990 10990 10990 10990 10989 10988 10988 10988 10987 10987 10987 10986 10986 10985 10984 10983
11001 11002 11002 11002 11001 10999 10998 10997 10997 11000 11003 11004 11003 11002 11002 11002 11002 11003 11003 11004 11005 11005 11004 11004 11004 11005 11005 11006 11006 11007 11008 11007 11006 11006 11006 11006 11005 11005 11005 11004 11004 11003 11003 11003 11002 11001 11000 11000 11001 11002 11001 11000 10999 10998 10997 10996 10995 10994 10993 10992 10992 10992 10992 10991 10990 10990 10989 10988 10987 10987 10986 10986 10986 10985 10984 10983 10983 10983 10983 10983 10983 10982 10981 10980 10979
10996 10996 10996 10996 10995 10994 10993 10994 10995 10996 10999 11000 10999 10999 10999 10999 10999 10999 11000 11000 11001 11001 11001 11001 11001 11001 11002 11002 11002 11003 11004 11003 11004 11004 11004 11003 11002 11002 11001 11001 11000 11000 11000 11000 10999 10998 10998 10997 10997 10997 10998 10997 10996 10995 10994 10993 10992 10991 10990 10989 10989 10989 10989 10988 10987 10986 10986 10986 10985 10984 10983 10982 10982 10981 10980 10978 10978 10978 10977 10978 10978 10977 10976 10976 10975
10991 10989 10989 10990 10989 10989 10990 10991 10991 10992 10993 10993 10993 10994 10994 10995 10995 10995 10995 10996 10996 10997 10997 10997 10997 10997 10998 10998 10998 10999 11000 10999 10999 11000 11000 10999 10999 10998 10997 10997 10996 10997 10997 10996 10995 10994 10994 10994 10994 10994 10994 10993 10992 10991 10990 10990 10989 10988 10987 10986 10986 10985 10985 10985 10984 10984 10983 10983 10982 10981 10980 10979 10978 10977 10976 10975 10974 10973 10971 10972 10972 10972 10971 10970 10970
10986 10982 10982 10984 10984 10984 10985 10986 10986 10987 10987 10987 10987 10988 10988 10989 10990 10990 10991 10991 10991 10992 10992 10993 10993 10993 10994 10993 10993 10994 10995 10995 10994 10995 10995 10995 10994 10994 10993 10993 10992 10992 10992 10992 10992 10990 10989 10989 10989 10989 10989 10988 10987 10987 10987 10986 10985 10983 10982 10982 10981 10980 10981 10981 10981 10981 10980 10979 10978 10978 10977 10976 10974 10973 10972 10971 10970 10968 10966 10966 10966 10966 10965 10965 10964